Weather History for Artesia, NM

Change the Weather History Date:

Sunday, February 17, 2013

  Actual Average Record
Temperature  
Mean Temperature 53 °F -  
Max Temperature 71 °F 62 °F 82 °F (1959)
Min Temperature 35 °F 27 °F 11 °F (1990)
Degree Days  
Heating Degree Days 12    
Growing Degree Days 3 (Base 50)    
Moisture  
Dew Point 5 °F    
Average Humidity 15    
Maximum Humidity 28    
Minimum Humidity 5    
Precipitation  
Precipitation 0.00 in - - ()
Sea Level Pressure  
Sea Level Pressure 29.89 in    
Wind  
Wind Speed 15 mph (SSW)    
Max Wind Speed 33 mph    
Max Gust Speed 44 mph    
Visibility 10 miles    
Events      
Averages and records for this station are not official NWS values.
T = Trace of Precipitation, MM = Missing Value Source: NWS Daily Summary

Daily Weather History Graph

Daily Weather History Graph

Search for Another Location

Airport:

Trip Planner

Search our weather history database for the weather conditions in past years. The results will help you decide how hot, cold, wet, or windy it might be!

Date:

Astronomy

Feb. 17, 2013 Rise Set
Actual Time 6:38 AM MST 5:45 PM MST
Civil Twilight 6:13 AM MST 6:10 PM MST
Nautical Twilight 5:44 AM MST 6:39 PM MST
Astronomical Twilight 5:16 AM MST 7:08 PM MST
Moon 10:58 AM MST (2/17) 12:18 AM MST (2/17)
Length of Visible Light 11h 56m
Length of Day
11h 06m
Waxing Crescent, 49% of the Moon is Illuminated
Feb 17
Waxing Crescent
Feb 17
First Quarter
Feb 25
Full
Mar 4
Last Quarter
Mar 11
New

Hourly Weather History & Observations

Time (MST) Temp. Windchill Dew Point Humidity Pressure Visibility Wind Dir Wind Speed Gust Speed Precip Events Conditions
12:15 AM 46.4 °F 39.2 °F 6.8 °F 20% 30.06 in 10.0 mi West 18.4 mph 24.2 mph N/A   Clear
12:35 AM 46.4 °F 39.2 °F 6.8 °F 20% 30.06 in 10.0 mi WSW 18.4 mph - N/A   Clear
12:55 AM 46.4 °F 39.5 °F 8.6 °F 22% 30.06 in 10.0 mi WSW 17.3 mph - N/A   Clear
1:15 AM 46.4 °F 39.5 °F 8.6 °F 22% 30.05 in 10.0 mi WSW 17.3 mph - N/A   Clear
1:35 AM 46.4 °F 39.5 °F 6.8 °F 20% 30.05 in 10.0 mi WSW 17.3 mph - N/A   Clear
1:55 AM 46.4 °F 39.0 °F 6.8 °F 20% 30.04 in 10.0 mi WSW 19.6 mph - N/A   Clear
2:15 AM 46.4 °F 39.5 °F 6.8 °F 20% 30.03 in 10.0 mi WSW 17.3 mph - N/A   Clear
2:35 AM 46.4 °F 39.2 °F 6.8 °F 20% 30.02 in 10.0 mi WSW 18.4 mph - N/A   Clear
2:55 AM 46.4 °F 39.5 °F 6.8 °F 20% 30.02 in 10.0 mi WSW 17.3 mph - N/A   Clear
3:15 AM 46.4 °F 40.1 °F 6.8 °F 20% 30.01 in 10.0 mi WSW 15.0 mph - N/A   Clear
3:35 AM 42.8 °F 40.1 °F 6.8 °F 23% 30.02 in 10.0 mi East 4.6 mph - N/A   Clear
3:55 AM 46.4 °F 44.3 °F 6.8 °F 20% 30.02 in 10.0 mi SE 4.6 mph - N/A   Clear
4:15 AM 41.0 °F 36.4 °F 6.8 °F 24% 30.01 in 10.0 mi SSE 6.9 mph - N/A   Clear
4:35 AM 41.0 °F 36.4 °F 5.0 °F 23% 30.01 in 10.0 mi SE 6.9 mph - N/A   Clear
4:55 AM 42.8 °F 41.1 °F 5.0 °F 21% 30.01 in 10.0 mi South 3.5 mph - N/A   Clear
5:15 AM 41.0 °F 39.0 °F 6.8 °F 24% 30.01 in 10.0 mi SW 3.5 mph - N/A   Clear
5:35 AM 39.2 °F 34.2 °F 5.0 °F 24% 30.01 in 10.0 mi SSE 6.9 mph - N/A   Clear
5:55 AM 35.6 °F - 5.0 °F 28% 30.01 in 10.0 mi Calm Calm - N/A   Clear
6:15 AM 39.2 °F - 5.0 °F 24% 30.02 in 10.0 mi Calm Calm - N/A   Clear
6:35 AM 37.4 °F 32.8 °F 5.0 °F 26% 30.01 in 10.0 mi SSE 5.8 mph - N/A   Clear
6:55 AM 37.4 °F 33.8 °F 5.0 °F 26% 30.01 in 10.0 mi South 4.6 mph - N/A   Clear
7:15 AM 37.4 °F 34.9 °F 5.0 °F 26% 30.01 in 10.0 mi SSW 3.5 mph - N/A   Clear
7:35 AM 39.2 °F 37.0 °F 6.8 °F 26% 30.01 in 10.0 mi SSW 3.5 mph - N/A   Clear
7:55 AM 42.8 °F 41.1 °F 6.8 °F 23% 30.01 in 10.0 mi SSW 3.5 mph - N/A   Clear
8:15 AM 46.4 °F 45.2 °F 8.6 °F 22% 30.02 in 10.0 mi SSW 3.5 mph - N/A   Clear
8:35 AM 50.0 °F - 8.6 °F 19% 30.02 in 10.0 mi WSW 5.8 mph - N/A   Clear
8:55 AM 53.6 °F - 8.6 °F 16% 30.01 in 10.0 mi South 4.6 mph - N/A   Clear
9:15 AM 53.6 °F - 8.6 °F 16% 30.01 in 10.0 mi South 4.6 mph - N/A   Clear
9:35 AM 53.6 °F - 8.6 °F 16% 30.00 in 10.0 mi SSE 6.9 mph - N/A   Clear
9:55 AM 55.4 °F - 8.6 °F 15% 29.99 in 10.0 mi South 6.9 mph - N/A   Clear
10:15 AM 55.4 °F - 8.6 °F 15% 29.98 in 10.0 mi South 5.8 mph - N/A   Clear
10:35 AM 57.2 °F - 8.6 °F 14% 29.97 in 10.0 mi SSE 9.2 mph - N/A   Clear
10:55 AM 60.8 °F - 8.6 °F 13% 29.95 in 10.0 mi SSE 10.4 mph - N/A   Clear
11:15 AM 62.6 °F - 8.6 °F 12% 29.94 in 10.0 mi SSE 11.5 mph - N/A   Clear
11:35 AM 62.6 °F - 8.6 °F 12% 29.92 in 10.0 mi SSE 18.4 mph 21.9 mph N/A   Clear
11:55 AM 64.4 °F - 6.8 °F 10% 29.90 in 10.0 mi South 19.6 mph 25.3 mph N/A   Clear
12:15 PM 66.2 °F - 5.0 °F 9% 29.88 in 10.0 mi South 23.0 mph - N/A   Clear
12:35 PM 68.0 °F - 1.4 °F 7% 29.86 in 10.0 mi SSW 23.0 mph 28.8 mph N/A   Clear
12:55 PM 69.8 °F - -5.8 °F 5% 29.84 in 10.0 mi SSW 24.2 mph 31.1 mph N/A   Clear
1:15 PM 71.6 °F - -5.8 °F 5% 29.82 in 10.0 mi SSW 29.9 mph 36.8 mph N/A   Clear
1:35 PM 71.6 °F - -2.2 °F 5% 29.80 in 10.0 mi SSW 32.2 mph 36.8 mph N/A   Clear
1:55 PM 69.8 °F - -0.4 °F 6% 29.79 in 10.0 mi SSW 29.9 mph 38.0 mph N/A   Clear
2:15 PM 68.0 °F - 1.4 °F 7% 29.79 in 10.0 mi SSW 29.9 mph 38.0 mph N/A   Clear
2:35 PM 69.8 °F - 3.2 °F 7% 29.78 in 10.0 mi SSW 23.0 mph 36.8 mph N/A   Clear
2:55 PM 69.8 °F - 3.2 °F 7% 29.77 in 10.0 mi SSW 24.2 mph 34.5 mph N/A   Clear
3:15 PM 68.0 °F - 5.0 °F 8% 29.75 in 10.0 mi SW 33.4 mph 41.4 mph N/A   Clear
3:35 PM 69.8 °F - 5.0 °F 8% 29.76 in 10.0 mi SSW 25.3 mph 43.7 mph N/A   Clear
3:55 PM 69.8 °F - 3.2 °F 7% 29.75 in 10.0 mi SW 26.5 mph 34.5 mph N/A   Clear
4:15 PM 68.0 °F - 3.2 °F 8% 29.75 in 10.0 mi SW 26.5 mph 35.7 mph N/A   Clear
4:35 PM 68.0 °F - 1.4 °F 7% 29.75 in 10.0 mi SW 24.2 mph 32.2 mph N/A   Clear
5:15 PM 66.2 °F - 1.4 °F 8% 29.75 in 10.0 mi SW 25.3 mph 31.1 mph N/A   Clear
5:35 PM 64.4 °F - 1.4 °F 8% 29.76 in 10.0 mi SW 18.4 mph 28.8 mph N/A   Clear
5:55 PM 62.6 °F - 1.4 °F 9% 29.76 in 10.0 mi SW 18.4 mph 24.2 mph N/A   Clear
6:15 PM 60.8 °F - 1.4 °F 9% 29.77 in 10.0 mi WSW 13.8 mph - N/A   Clear
6:35 PM 59.0 °F - 1.4 °F 10% 29.77 in 10.0 mi SW 10.4 mph - N/A   Clear
6:55 PM 57.2 °F - 1.4 °F 10% 29.77 in 10.0 mi SW 11.5 mph 16.1 mph N/A   Clear
7:15 PM 57.2 °F - 1.4 °F 10% 29.76 in 10.0 mi SW 10.4 mph - N/A   Clear
7:35 PM 59.0 °F - 1.4 °F 10% 29.76 in 10.0 mi WSW 17.3 mph - N/A   Clear
7:55 PM 57.2 °F - 1.4 °F 10% 29.75 in 10.0 mi SW 17.3 mph - N/A   Clear
8:15 PM 57.2 °F - 1.4 °F 10% 29.75 in 10.0 mi SW 18.4 mph - N/A   Clear
8:35 PM 55.4 °F - 1.4 °F 11% 29.75 in 10.0 mi SW 19.6 mph - N/A   Clear
8:55 PM 55.4 °F - 1.4 °F 11% 29.75 in 10.0 mi SW 18.4 mph - N/A   Clear
9:15 PM 53.6 °F - 1.4 °F 12% 29.76 in 10.0 mi SW 16.1 mph - N/A   Clear
9:35 PM 50.0 °F - 1.4 °F 14% 29.76 in 10.0 mi SW 13.8 mph - N/A   Clear
9:55 PM 50.0 °F - 1.4 °F 14% 29.75 in 10.0 mi WSW 15.0 mph - N/A   Clear
10:15 PM 51.8 °F - 1.4 °F 13% 29.75 in 10.0 mi WSW 17.3 mph - N/A   Clear
10:35 PM 53.6 °F - 3.2 °F 13% 29.75 in 10.0 mi WSW 18.4 mph - N/A   Clear
10:55 PM 53.6 °F - 5.0 °F 14% 29.76 in 10.0 mi WSW 16.1 mph - N/A   Clear
11:15 PM 53.6 °F - 5.0 °F 14% 29.76 in 10.0 mi West 13.8 mph - N/A   Clear
11:35 PM 55.4 °F - 6.8 °F 14% 29.76 in 10.0 mi WSW 23.0 mph 28.8 mph N/A   Clear
11:55 PM 57.2 °F - 8.6 °F 14% 29.77 in 10.0 mi WSW 21.9 mph 31.1 mph N/A   Clear